Вернуться в каталог

STARLINK-37950

АктивенСвязьSSO
NORAD 69560·PAYLOAD·🇺🇸 United States

Запущен Jun 15, 2026 с Vandenberg Space Force Base

Loading…

Ближайшие Пролёты (ближайшие 24 часа)

TLE

СвежийSource: CelesTrak SupGP

Эпоха: Sep 15, 2026, 03:16 UTC

1 69560C 26135Q   26258.13659722 -.00051560  00000+0 -16006-2 0  2582
2 69560  97.2838 285.9211 0001041  89.2825 125.8875 15.33463984    16

Отслеживайте STARLINK-37950 в реальном времени с AllMySat

Download on the App Store